Time,TemperatureF,DewpointF,PressureIn,WindDirection,WindDirectionDegrees,WindSpeedMPH,WindSpeedGustMPH,Humidity,HourlyPrecipIn,Conditions,Clouds,dailyrainin,SolarRadiationWatts/m^2,SoftwareType,DateUTC
2013-10-09 00:00:00,50.4,43.1,30.27,SSE,168,1.0,4.0,76,0.00,CLR,,0.00,0.0,WeatherDisplay:10.37,2013-10-09 04:00:00,
2013-10-09 00:01:00,50.3,43.4,30.27,South,173,3.5,3.5,77,0.00,CLR,,0.00,0.0,WeatherDisplay:10.37,2013-10-09 04:01:00,
2013-10-09 00:02:00,50.3,43.4,30.26,South,169,3.5,3.5,77,0.00,CLR,,0.00,0.0,WeatherDisplay:10.37,2013-10-09 04:02:00,
2013-10-09 00:07:00,50.0,43.4,30.26,SSE,167,4.6,4.6,78,0.00,CLR,,0.00,0.0,WeatherDisplay:10.37,2013-10-09 04:07:00,
2013-10-09 00:12:00,49.9,43.3,30.27,SSW,192,4.6,4.6,78,0.00,CLR,,0.00,0.0,WeatherDisplay:10.37,2013-10-09 04:12:00,
2013-10-09 00:17:00,49.8,43.5,30.27,SSE,155,4.0,4.0,79,0.00,CLR,,0.00,0.0,WeatherDisplay:10.37,2013-10-09 04:17:00,
2013-10-09 00:22:00,49.8,43.5,30.26,SSE,166,5.8,5.8,79,0.00,CLR,,0.00,0.0,WeatherDisplay:10.37,2013-10-09 04:22:00,
2013-10-09 00:27:00,49.7,43.8,30.26,SSE,155,3.5,3.5,80,0.00,CLR,,0.00,0.0,WeatherDisplay:10.37,2013-10-09 04:27:00,
2013-10-09 00:32:00,49.6,43.7,30.26,SSE,155,3.0,3.0,80,0.00,CLR,,0.00,0.0,WeatherDisplay:10.37,2013-10-09 04:32:00,
2013-10-09 00:37:00,49.4,43.8,30.26,SSE,150,2.3,2.3,81,0.00,CLR,,0.00,0.0,WeatherDisplay:10.37,2013-10-09 04:37:00,
2013-10-09 00:42:00,49.2,43.6,30.26,SSE,167,2.3,2.3,81,0.00,CLR,,0.00,0.0,WeatherDisplay:10.37,2013-10-09 04:42:00,
2013-10-09 00:47:00,49.1,43.8,30.26,South,178,3.5,3.5,82,0.00,CLR,,0.00,0.0,WeatherDisplay:10.37,2013-10-09 04:47:00,
2013-10-09 00:52:00,49.1,43.8,30.26,SSE,166,4.6,4.6,82,0.00,CLR,,0.00,0.0,WeatherDisplay:10.37,2013-10-09 04:52:00,
2013-10-09 00:57:00,49.0,43.7,30.26,South,175,3.5,3.5,82,0.00,CLR,,0.00,0.0,WeatherDisplay:10.37,2013-10-09 04:57:00,
2013-10-09 01:02:00,48.9,44.0,30.26,SSE,165,4.0,4.0,83,0.00,CLR,,0.00,0.0,WeatherDisplay:10.37,2013-10-09 05:02:00,
2013-10-09 01:07:00,48.8,43.9,30.26,SSE,167,2.3,2.3,83,0.00,CLR,,0.00,0.0,WeatherDisplay:10.37,2013-10-09 05:07:00,
2013-10-09 01:12:00,48.7,44.1,30.25,SSE,167,2.3,2.3,84,0.00,CLR,,0.00,0.0,WeatherDisplay:10.37,2013-10-09 05:12:00,
2013-10-09 01:17:00,48.6,44.0,30.26,SSE,167,2.3,2.3,84,0.00,CLR,,0.00,0.0,WeatherDisplay:10.37,2013-10-09 05:17:00,
2013-10-09 01:22:00,48.4,43.8,30.25,SSE,167,3.0,3.0,84,0.00,CLR,,0.00,0.0,WeatherDisplay:10.37,2013-10-09 05:22:00,
2013-10-09 01:27:00,48.3,44.0,30.25,SSE,167,1.2,1.2,85,0.00,CLR,,0.00,0.0,WeatherDisplay:10.37,2013-10-09 05:27:00,
2013-10-09 01:32:00,48.1,43.8,30.25,SSE,167,0.0,0.0,85,0.00,CLR,,0.00,0.0,WeatherDisplay:10.37,2013-10-09 05:32:00,
2013-10-09 01:37:00,47.8,43.5,30.25,SSE,167,1.0,1.0,85,0.00,CLR,,0.00,0.0,WeatherDisplay:10.37,2013-10-09 05:37:00,
2013-10-09 01:42:00,47.7,43.7,30.25,SSE,167,1.2,1.2,86,0.00,CLR,,0.00,0.0,WeatherDisplay:10.37,2013-10-09 05:42:00,
2013-10-09 01:47:00,47.6,43.6,30.26,SSE,167,1.2,1.2,86,0.00,CLR,,0.00,0.0,WeatherDisplay:10.37,2013-10-09 05:47:00,
2013-10-09 01:52:00,47.5,43.8,30.26,SSE,167,2.3,2.3,87,0.00,CLR,,0.00,0.0,WeatherDisplay:10.37,2013-10-09 05:52:00,
2013-10-09 01:57:00,47.5,43.8,30.26,SSE,167,1.2,1.2,87,0.00,CLR,,0.00,0.0,WeatherDisplay:10.37,2013-10-09 05:57:00,
2013-10-09 02:02:00,47.5,43.8,30.26,SSE,167,1.2,1.2,87,0.00,CLR,,0.00,0.0,WeatherDisplay:10.37,2013-10-09 06:02:00,
2013-10-09 02:07:00,47.4,43.7,30.26,SSE,167,1.2,0.0,87,0.00,CLR,,0.00,0.0,WeatherDisplay:10.37,2013-10-09 06:07:00,
2013-10-09 02:12:00,47.2,43.5,30.26,SSE,167,1.0,0.0,87,0.00,CLR,,0.00,0.0,WeatherDisplay:10.37,2013-10-09 06:12:00,
2013-10-09 02:17:00,47.0,43.6,30.26,SSE,167,0.0,0.0,88,0.00,CLR,,0.00,0.0,WeatherDisplay:10.37,2013-10-09 06:17:00,
2013-10-09 02:22:00,47.1,43.7,30.26,SSE,167,2.3,2.3,88,0.00,CLR,,0.00,0.0,WeatherDisplay:10.37,2013-10-09 06:22:00,
2013-10-09 02:27:00,47.0,43.6,30.26,SSE,167,2.3,2.3,88,0.00,CLR,,0.00,0.0,WeatherDisplay:10.37,2013-10-09 06:27:00,
2013-10-09 02:32:00,46.9,43.8,30.26,SSE,167,2.3,2.3,89,0.00,CLR,,0.00,0.0,WeatherDisplay:10.37,2013-10-09 06:32:00,
2013-10-09 02:37:00,47.1,44.0,30.26,SSE,167,3.5,3.5,89,0.00,CLR,,0.00,0.0,WeatherDisplay:10.37,2013-10-09 06:37:00,
2013-10-09 02:42:00,47.3,44.2,30.26,SSE,167,1.2,1.2,89,0.00,CLR,,0.00,0.0,WeatherDisplay:10.37,2013-10-09 06:42:00,
2013-10-09 02:47:00,47.4,44.3,30.26,SSE,167,2.3,2.3,89,0.00,CLR,,0.00,0.0,WeatherDisplay:10.37,2013-10-09 06:47:00,
2013-10-09 02:52:00,47.6,44.5,30.26,South,169,3.5,3.5,89,0.00,CLR,,0.00,0.0,WeatherDisplay:10.37,2013-10-09 06:52:00,
2013-10-09 02:57:00,47.8,44.7,30.26,South,181,3.5,3.5,89,0.00,CLR,,0.00,0.0,WeatherDisplay:10.37,2013-10-09 06:57:00,
2013-10-09 03:02:00,47.9,44.8,30.26,South,188,3.5,3.5,89,0.00,CLR,,0.00,0.0,WeatherDisplay:10.37,2013-10-09 07:02:00,
2013-10-09 03:07:00,48.0,44.9,30.26,South,185,3.5,3.5,89,0.00,CLR,,0.00,0.0,WeatherDisplay:10.37,2013-10-09 07:07:00,
2013-10-09 03:12:00,48.0,44.9,30.26,SE,140,2.3,2.3,89,0.00,CLR,,0.00,0.0,WeatherDisplay:10.37,2013-10-09 07:12:00,
2013-10-09 03:17:00,48.0,44.9,30.26,South,172,3.5,3.5,89,0.00,CLR,,0.00,0.0,WeatherDisplay:10.37,2013-10-09 07:17:00,
2013-10-09 03:22:00,48.0,44.9,30.26,SE,146,2.3,2.3,89,0.00,CLR,,0.00,0.0,WeatherDisplay:10.37,2013-10-09 07:22:00,
2013-10-09 03:27:00,48.0,44.9,30.26,South,169,2.3,2.3,89,0.00,CLR,,0.00,0.0,WeatherDisplay:10.37,2013-10-09 07:27:00,
2013-10-09 03:32:00,47.9,44.8,30.26,South,169,3.5,3.5,89,0.00,CLR,,0.00,0.0,WeatherDisplay:10.37,2013-10-09 07:32:00,
2013-10-09 03:37:00,47.9,44.8,30.26,South,183,1.2,1.2,89,0.00,CLR,,0.00,0.0,WeatherDisplay:10.37,2013-10-09 07:37:00,
2013-10-09 03:42:00,47.9,44.8,30.26,SSE,165,2.3,2.3,89,0.00,CLR,,0.00,0.0,WeatherDisplay:10.37,2013-10-09 07:42:00,
2013-10-09 03:47:00,47.8,44.7,30.26,SSE,165,2.3,2.3,89,0.00,CLR,,0.00,0.0,WeatherDisplay:10.37,2013-10-09 07:47:00,
2013-10-09 03:52:00,47.7,44.6,30.26,SSE,165,2.3,2.3,89,0.00,CLR,,0.00,0.0,WeatherDisplay:10.37,2013-10-09 07:52:00,
2013-10-09 03:57:00,47.6,44.8,30.26,SSE,165,1.2,1.2,90,0.00,CLR,,0.00,0.0,WeatherDisplay:10.37,2013-10-09 07:57:00,
2013-10-09 04:02:00,47.5,44.7,30.26,SSE,165,0.0,0.0,90,0.00,CLR,,0.00,0.0,WeatherDisplay:10.37,2013-10-09 08:02:00,
2013-10-09 04:07:00,47.4,44.6,30.25,SSE,165,1.2,1.2,90,0.00,CLR,,0.00,0.0,WeatherDisplay:10.37,2013-10-09 08:07:00,
2013-10-09 04:12:00,47.4,44.6,30.25,SSE,165,2.3,2.3,90,0.00,CLR,,0.00,0.0,WeatherDisplay:10.37,2013-10-09 08:12:00,
2013-10-09 04:17:00,47.4,44.6,30.26,SSE,165,2.3,2.3,90,0.00,CLR,,0.00,0.0,WeatherDisplay:10.37,2013-10-09 08:17:00,
2013-10-09 04:22:00,47.4,44.9,30.26,SSE,165,2.0,2.0,91,0.00,CLR,,0.00,0.0,WeatherDisplay:10.37,2013-10-09 08:22:00,
2013-10-09 04:27:00,47.4,44.9,30.26,SSE,165,1.2,1.2,91,0.00,CLR,,0.00,0.0,WeatherDisplay:10.37,2013-10-09 08:27:00,
2013-10-09 04:32:00,47.3,44.8,30.26,SSE,165,1.2,1.2,91,0.00,CLR,,0.00,0.0,WeatherDisplay:10.37,2013-10-09 08:32:00,
2013-10-09 04:37:00,47.3,44.8,30.26,SSE,165,1.2,1.2,91,0.00,CLR,,0.00,0.0,WeatherDisplay:10.37,2013-10-09 08:37:00,
2013-10-09 04:42:00,47.3,44.8,30.26,SSE,165,2.3,2.3,91,0.00,CLR,,0.00,0.0,WeatherDisplay:10.37,2013-10-09 08:42:00,
2013-10-09 04:47:00,47.3,44.8,30.26,SSE,165,1.2,0.0,91,0.00,CLR,,0.00,0.0,WeatherDisplay:10.37,2013-10-09 08:47:00,
2013-10-09 04:52:00,47.2,44.7,30.27,SSE,165,0.0,0.0,91,0.00,CLR,,0.00,0.0,WeatherDisplay:10.37,2013-10-09 08:52:00,
2013-10-09 04:57:00,47.2,45.0,30.27,SSE,165,2.3,2.3,92,0.00,CLR,,0.00,0.0,WeatherDisplay:10.37,2013-10-09 08:57:00,
2013-10-09 05:02:00,47.2,45.0,30.27,SSE,165,1.2,1.2,92,0.00,CLR,,0.00,0.0,WeatherDisplay:10.37,2013-10-09 09:02:00,
2013-10-09 05:07:00,47.3,45.1,30.27,SSE,165,2.3,2.3,92,0.00,CLR,,0.00,0.0,WeatherDisplay:10.37,2013-10-09 09:07:00,
2013-10-09 05:12:00,47.4,45.2,30.27,SSE,165,3.5,3.5,92,0.00,CLR,,0.00,0.0,WeatherDisplay:10.37,2013-10-09 09:12:00,
2013-10-09 05:17:00,47.4,45.2,30.27,SSE,165,3.5,3.5,92,0.00,CLR,,0.00,0.0,WeatherDisplay:10.37,2013-10-09 09:17:00,
2013-10-09 05:22:00,47.5,45.3,30.27,SSE,156,2.3,2.3,92,0.00,CLR,,0.00,0.0,WeatherDisplay:10.37,2013-10-09 09:22:00,
2013-10-09 05:27:00,47.6,45.4,30.27,South,171,3.5,3.5,92,0.00,CLR,,0.00,0.0,WeatherDisplay:10.37,2013-10-09 09:27:00,
2013-10-09 05:32:00,47.7,45.5,30.27,SSE,165,3.5,3.5,92,0.00,CLR,,0.00,0.0,WeatherDisplay:10.37,2013-10-09 09:32:00,
2013-10-09 05:37:00,47.7,45.5,30.27,SSE,161,3.5,3.5,92,0.00,CLR,,0.00,0.0,WeatherDisplay:10.37,2013-10-09 09:37:00,
2013-10-09 05:42:00,47.8,45.6,30.27,South,175,3.5,3.5,92,0.00,CLR,,0.00,0.0,WeatherDisplay:10.37,2013-10-09 09:42:00,
2013-10-09 05:47:00,47.8,45.6,30.27,SSE,164,2.3,2.3,92,0.00,CLR,,0.00,0.0,WeatherDisplay:10.37,2013-10-09 09:47:00,
2013-10-09 05:52:00,47.7,45.5,30.28,SSE,159,2.3,2.3,92,0.00,CLR,,0.00,0.0,WeatherDisplay:10.37,2013-10-09 09:52:00,
2013-10-09 05:57:00,47.6,45.4,30.28,SSE,167,2.3,2.3,92,0.00,CLR,,0.00,0.0,WeatherDisplay:10.37,2013-10-09 09:57:00,
2013-10-09 06:02:00,47.6,45.4,30.28,South,172,3.5,3.5,92,0.00,CLR,,0.00,0.0,WeatherDisplay:10.37,2013-10-09 10:02:00,
2013-10-09 06:07:00,47.6,45.4,30.28,South,172,2.3,2.3,92,0.00,CLR,,0.00,0.0,WeatherDisplay:10.37,2013-10-09 10:07:00,
2013-10-09 06:12:00,47.4,45.2,30.28,South,172,0.0,0.0,92,0.00,CLR,,0.00,0.0,WeatherDisplay:10.37,2013-10-09 10:12:00,
2013-10-09 06:17:00,47.3,45.4,30.28,South,171,3.5,3.5,93,0.00,CLR,,0.00,0.0,WeatherDisplay:10.37,2013-10-09 10:17:00,
2013-10-09 06:22:00,47.3,45.4,30.28,South,171,2.3,2.3,93,0.00,CLR,,0.00,0.0,WeatherDisplay:10.37,2013-10-09 10:22:00,
2013-10-09 06:27:00,47.3,45.4,30.28,SSW,192,2.3,2.3,93,0.00,CLR,,0.00,0.0,WeatherDisplay:10.37,2013-10-09 10:27:00,
2013-10-09 06:32:00,47.3,45.4,30.28,SSW,192,3.5,3.5,93,0.00,CLR,,0.00,0.0,WeatherDisplay:10.37,2013-10-09 10:32:00,
2013-10-09 06:37:00,47.3,45.4,30.28,South,174,1.2,1.2,93,0.00,CLR,,0.00,0.0,WeatherDisplay:10.37,2013-10-09 10:37:00,
2013-10-09 06:42:00,47.3,45.7,30.28,South,171,2.3,2.3,94,0.00,CLR,,0.00,0.0,WeatherDisplay:10.37,2013-10-09 10:42:00,
2013-10-09 06:47:00,47.2,45.6,30.28,South,171,3.5,3.5,94,0.00,CLR,,0.00,0.0,WeatherDisplay:10.37,2013-10-09 10:47:00,
2013-10-09 06:52:00,47.1,45.5,30.28,South,171,2.3,2.3,94,0.00,CLR,,0.00,0.0,WeatherDisplay:10.37,2013-10-09 10:52:00,
2013-10-09 06:57:00,47.0,45.4,30.28,South,173,2.3,2.3,94,0.00,CLR,,0.00,0.0,WeatherDisplay:10.37,2013-10-09 10:57:00,
2013-10-09 07:02:00,46.8,44.9,30.28,South,173,2.3,2.3,93,0.00,CLR,,0.00,0.0,WeatherDisplay:10.37,2013-10-09 11:02:00,
2013-10-09 07:07:00,46.7,44.8,30.29,South,173,1.2,0.0,93,0.00,CLR,,0.00,0.0,WeatherDisplay:10.37,2013-10-09 11:07:00,
2013-10-09 07:12:00,46.5,44.6,30.29,South,173,0.0,0.1,93,0.00,CLR,,0.00,0.0,WeatherDisplay:10.37,2013-10-09 11:12:00,
2013-10-09 07:17:00,46.2,44.3,30.29,South,173,0.0,0.0,93,0.00,CLR,,0.00,0.0,WeatherDisplay:10.37,2013-10-09 11:17:00,
2013-10-09 07:22:00,45.8,43.9,30.29,South,173,0.0,0.0,93,0.00,CLR,,0.00,0.0,WeatherDisplay:10.37,2013-10-09 11:22:00,
2013-10-09 07:27:00,45.5,43.6,30.29,South,173,0.0,0.0,93,0.00,CLR,,0.00,0.0,WeatherDisplay:10.37,2013-10-09 11:27:00,
2013-10-09 07:32:00,45.1,42.9,30.29,South,173,0.0,0.0,92,0.00,CLR,,0.00,0.0,WeatherDisplay:10.37,2013-10-09 11:32:00,
2013-10-09 07:37:00,44.8,42.9,30.29,South,173,0.0,0.0,93,0.00,CLR,,0.00,0.0,WeatherDisplay:10.37,2013-10-09 11:37:00,
2013-10-09 07:42:00,44.5,42.6,30.29,South,173,0.0,0.0,93,0.00,CLR,,0.00,0.0,WeatherDisplay:10.37,2013-10-09 11:42:00,
2013-10-09 07:47:00,44.5,42.9,30.29,South,173,0.0,0.0,94,0.00,CLR,,0.00,5.0,WeatherDisplay:10.37,2013-10-09 11:47:00,
2013-10-09 07:52:00,44.3,42.7,30.29,South,173,0.0,0.0,94,0.00,CLR,,0.00,9.0,WeatherDisplay:10.37,2013-10-09 11:52:00,
2013-10-09 07:57:00,44.1,42.5,30.29,South,173,0.0,0.0,94,0.00,CLR,,0.00,11.0,WeatherDisplay:10.37,2013-10-09 11:57:00,
2013-10-09 08:02:00,44.1,42.5,30.29,South,173,1.2,1.2,94,0.00,CLR,,0.00,12.0,WeatherDisplay:10.37,2013-10-09 12:02:00,
2013-10-09 08:03:00,44.1,42.5,30.29,South,173,1.2,1.2,94,0.00,CLR,,0.00,12.0,WeatherDisplay:10.37,2013-10-09 12:03:00,
2013-10-09 08:08:00,44.0,42.4,30.30,South,173,1.0,1.0,94,0.00,CLR,,0.00,16.0,WeatherDisplay:10.37,2013-10-09 12:08:00,
2013-10-09 08:13:00,44.0,42.7,30.30,South,173,2.3,2.3,95,0.00,CLR,,0.00,18.0,WeatherDisplay:10.37,2013-10-09 12:13:00,
2013-10-09 08:18:00,44.1,42.8,30.30,South,173,1.2,0.0,95,0.00,CLR,,0.00,21.0,WeatherDisplay:10.37,2013-10-09 12:18:00,
2013-10-09 08:23:00,44.2,42.9,30.30,South,173,0.0,0.0,95,0.00,CLR,,0.00,32.0,WeatherDisplay:10.37,2013-10-09 12:23:00,
2013-10-09 08:28:00,44.2,42.9,30.30,South,173,0.0,0.0,95,0.00,CLR,,0.00,21.0,WeatherDisplay:10.37,2013-10-09 12:28:00,
2013-10-09 08:33:00,44.3,43.2,30.31,South,173,0.0,0.0,96,0.00,CLR,,0.00,28.0,WeatherDisplay:10.37,2013-10-09 12:33:00,
2013-10-09 08:38:00,44.9,43.8,30.31,South,173,0.0,0.0,96,0.00,CLR,,0.00,26.0,WeatherDisplay:10.37,2013-10-09 12:38:00,
2013-10-09 08:43:00,45.3,44.2,30.31,South,173,0.0,0.0,96,0.00,CLR,,0.00,39.0,WeatherDisplay:10.37,2013-10-09 12:43:00,
2013-10-09 08:48:00,45.6,44.5,30.31,South,173,0.0,0.0,96,0.00,CLR,,0.00,30.0,WeatherDisplay:10.37,2013-10-09 12:48:00,
2013-10-09 08:53:00,46.1,45.3,30.31,South,173,0.0,0.0,97,0.00,CLR,,0.00,47.0,WeatherDisplay:10.37,2013-10-09 12:53:00,
2013-10-09 08:58:00,46.6,45.8,30.31,South,173,0.0,0.0,97,0.00,CLR,,0.00,40.0,WeatherDisplay:10.37,2013-10-09 12:58:00,
2013-10-09 09:03:00,47.6,46.8,30.31,South,173,0.0,0.0,97,0.00,OVC,,0.00,62.0,WeatherDisplay:10.37,2013-10-09 13:03:00,
2013-10-09 09:08:00,48.6,47.8,30.31,South,173,1.2,1.2,97,0.00,OVC,,0.00,86.0,WeatherDisplay:10.37,2013-10-09 13:08:00,
2013-10-09 09:13:00,49.8,49.0,30.32,South,173,0.0,0.0,97,0.00,OVC,,0.00,179.0,WeatherDisplay:10.37,2013-10-09 13:13:00,
2013-10-09 09:18:00,51.0,50.5,30.31,South,173,3.5,3.5,98,0.00,OVC,,0.00,192.0,WeatherDisplay:10.37,2013-10-09 13:18:00,
2013-10-09 09:23:00,52.2,51.4,30.31,South,173,3.5,3.5,97,0.00,OVC,,0.00,204.0,WeatherDisplay:10.37,2013-10-09 13:23:00,
2013-10-09 09:28:00,53.4,52.6,30.32,South,173,2.3,2.3,97,0.00,OVC,,0.00,216.0,WeatherDisplay:10.37,2013-10-09 13:28:00,
2013-10-09 09:33:00,54.3,53.5,30.32,South,173,2.3,2.3,97,0.00,OVC,,0.00,227.0,WeatherDisplay:10.37,2013-10-09 13:33:00,
2013-10-09 09:38:00,55.1,53.7,30.32,South,173,2.3,2.3,95,0.00,OVC,,0.00,239.0,WeatherDisplay:10.37,2013-10-09 13:38:00,
2013-10-09 09:43:00,56.0,53.7,30.32,South,184,2.3,2.3,92,0.00,OVC,,0.00,251.0,WeatherDisplay:10.37,2013-10-09 13:43:00,
2013-10-09 09:48:00,57.0,54.1,30.32,SSE,157,3.5,3.5,90,0.00,OVC,,0.00,265.0,WeatherDisplay:10.37,2013-10-09 13:48:00,
2013-10-09 09:53:00,57.8,54.0,30.32,SSE,163,2.3,2.3,87,0.00,OVC,,0.00,279.0,WeatherDisplay:10.37,2013-10-09 13:53:00,
2013-10-09 09:58:00,58.6,54.4,30.32,SSE,163,2.3,2.3,86,0.00,OVC,,0.00,295.0,WeatherDisplay:10.37,2013-10-09 13:58:00,
2013-10-09 10:03:00,59.5,55.0,30.32,SSW,195,2.3,2.3,85,0.00,OVC,,0.00,311.0,WeatherDisplay:10.37,2013-10-09 14:03:00,
2013-10-09 10:08:00,60.4,54.9,30.31,SSW,201,3.5,3.5,82,0.00,OVC,,0.00,329.0,WeatherDisplay:10.37,2013-10-09 14:08:00,
2013-10-09 10:13:00,61.1,55.2,30.31,SE,144,3.5,3.5,81,0.00,OVC,,0.00,345.0,WeatherDisplay:10.37,2013-10-09 14:13:00,
2013-10-09 10:18:00,61.9,55.0,30.31,SSW,197,3.0,3.0,78,0.00,OVC,,0.00,367.0,WeatherDisplay:10.37,2013-10-09 14:18:00,
2013-10-09 10:23:00,62.5,55.2,30.32,SSW,197,1.2,1.2,77,0.00,OVC,,0.00,383.0,WeatherDisplay:10.37,2013-10-09 14:23:00,
2013-10-09 10:28:00,63.1,55.0,30.31,South,188,4.0,4.0,75,0.00,OVC,,0.00,403.0,WeatherDisplay:10.37,2013-10-09 14:28:00,
2013-10-09 10:33:00,63.7,55.3,30.31,South,187,3.5,3.5,74,0.00,OVC,,0.00,417.0,WeatherDisplay:10.37,2013-10-09 14:33:00,
2013-10-09 10:38:00,64.2,54.2,30.31,SSW,206,1.2,1.2,70,0.00,OVC,,0.00,431.0,WeatherDisplay:10.37,2013-10-09 14:38:00,
2013-10-09 10:43:00,64.5,54.1,30.32,SSW,196,0.0,0.0,69,0.00,OVC,,0.00,443.0,WeatherDisplay:10.37,2013-10-09 14:43:00,
2013-10-09 10:48:00,64.7,53.5,30.31,SSW,202,6.9,6.9,67,0.00,OVC,,0.00,455.0,WeatherDisplay:10.37,2013-10-09 14:48:00,
2013-10-09 10:53:00,64.8,53.2,30.32,SSW,211,3.5,3.5,66,0.00,OVC,,0.00,468.0,WeatherDisplay:10.37,2013-10-09 14:53:00,
2013-10-09 10:58:00,64.9,53.7,30.32,SW,215,1.2,1.2,67,0.00,OVC,,0.00,480.0,WeatherDisplay:10.37,2013-10-09 14:58:00,
2013-10-09 11:03:00,65.3,52.8,30.31,South,186,3.5,3.5,64,0.00,OVC,,0.00,490.0,WeatherDisplay:10.37,2013-10-09 15:03:00,
2013-10-09 11:08:00,65.6,53.9,30.31,SSW,211,2.3,2.3,66,0.00,OVC,,0.00,503.0,WeatherDisplay:10.37,2013-10-09 15:08:00,
2013-10-09 11:13:00,65.8,52.0,30.31,SSW,202,4.6,4.6,61,0.00,OVC,,0.00,515.0,WeatherDisplay:10.37,2013-10-09 15:13:00,
2013-10-09 11:18:00,65.9,51.2,30.31,SSW,213,5.0,5.0,59,0.00,OVC,,0.00,526.0,WeatherDisplay:10.37,2013-10-09 15:18:00,
2013-10-09 11:23:00,66.0,51.7,30.31,SSW,200,3.5,3.5,60,0.00,OVC,,0.00,536.0,WeatherDisplay:10.37,2013-10-09 15:23:00,
2013-10-09 11:28:00,66.1,51.4,30.31,SE,146,3.5,3.5,59,0.00,OVC,,0.00,545.0,WeatherDisplay:10.37,2013-10-09 15:28:00,
2013-10-09 11:33:00,66.2,50.0,30.31,South,180,5.0,5.0,56,0.00,OVC,,0.00,555.0,WeatherDisplay:10.37,2013-10-09 15:33:00,
2013-10-09 11:38:00,66.4,50.7,30.31,South,180,3.5,3.5,57,0.00,OVC,,0.00,563.0,WeatherDisplay:10.37,2013-10-09 15:38:00,
2013-10-09 11:43:00,66.6,51.8,30.31,SSW,200,5.8,5.8,59,0.00,OVC,,0.00,571.0,WeatherDisplay:10.37,2013-10-09 15:43:00,
2013-10-09 11:48:00,66.2,51.4,30.31,SW,219,6.9,6.9,59,0.00,OVC,,0.00,578.0,WeatherDisplay:10.37,2013-10-09 15:48:00,
2013-10-09 11:53:00,66.3,51.1,30.31,ESE,121,3.5,3.5,58,0.00,OVC,,0.00,589.0,WeatherDisplay:10.37,2013-10-09 15:53:00,
2013-10-09 11:58:00,66.6,51.8,30.30,South,171,4.6,4.6,59,0.00,OVC,,0.00,598.0,WeatherDisplay:10.37,2013-10-09 15:58:00,
2013-10-09 12:03:00,67.1,50.9,30.30,South,183,8.0,8.0,56,0.00,OVC,,0.00,603.0,WeatherDisplay:10.37,2013-10-09 16:03:00,
2013-10-09 12:08:00,67.2,51.9,30.30,East,85,8.1,8.1,58,0.00,OVC,,0.00,612.0,WeatherDisplay:10.37,2013-10-09 16:08:00,
2013-10-09 12:13:00,67.1,51.8,30.30,SSE,152,5.8,5.8,58,0.00,OVC,,0.00,619.0,WeatherDisplay:10.37,2013-10-09 16:13:00,
2013-10-09 12:18:00,67.5,52.7,30.30,ESE,116,5.0,5.0,59,0.00,OVC,,0.00,626.0,WeatherDisplay:10.37,2013-10-09 16:18:00,
2013-10-09 12:23:00,67.5,51.7,30.30,South,173,6.9,6.9,57,0.00,OVC,,0.00,631.0,WeatherDisplay:10.37,2013-10-09 16:23:00,
2013-10-09 12:28:00,67.7,51.9,30.30,SSE,162,8.1,8.1,57,0.00,OVC,,0.00,635.0,WeatherDisplay:10.37,2013-10-09 16:28:00,
2013-10-09 12:33:00,67.8,52.0,30.30,SSW,194,4.6,4.6,57,0.00,OVC,,0.00,643.0,WeatherDisplay:10.37,2013-10-09 16:33:00,
2013-10-09 12:38:00,68.2,52.4,30.30,SW,221,6.9,6.9,57,0.00,OVC,,0.00,647.0,WeatherDisplay:10.37,2013-10-09 16:38:00,
2013-10-09 12:43:00,68.4,51.1,30.30,South,182,8.0,8.0,54,0.00,CLR,,0.00,654.0,WeatherDisplay:10.37,2013-10-09 16:43:00,
2013-10-09 12:48:00,68.2,50.9,30.29,SSW,210,8.1,8.1,54,0.00,CLR,,0.00,656.0,WeatherDisplay:10.37,2013-10-09 16:48:00,
2013-10-09 12:53:00,68.1,50.8,30.29,South,175,8.1,8.1,54,0.00,CLR,,0.00,661.0,WeatherDisplay:10.37,2013-10-09 16:53:00,
2013-10-09 12:58:00,68.4,51.6,30.29,SSE,163,9.0,9.0,55,0.00,CLR,,0.00,664.0,WeatherDisplay:10.37,2013-10-09 16:58:00,
2013-10-09 13:03:00,68.6,50.8,30.29,SE,124,5.8,5.8,53,0.00,CLR,,0.00,668.0,WeatherDisplay:10.37,2013-10-09 17:03:00,
2013-10-09 13:08:00,68.6,50.8,30.29,SSE,147,5.8,5.8,53,0.00,CLR,,0.00,670.0,WeatherDisplay:10.37,2013-10-09 17:08:00,
2013-10-09 13:13:00,68.6,50.8,30.28,South,188,4.6,4.6,53,0.00,CLR,,0.00,673.0,WeatherDisplay:10.37,2013-10-09 17:13:00,
2013-10-09 13:18:00,68.8,51.5,30.28,ENE,57,7.0,7.0,54,0.00,CLR,,0.00,671.0,WeatherDisplay:10.37,2013-10-09 17:18:00,
2013-10-09 13:23:00,68.9,51.6,30.28,SSE,155,4.6,4.6,54,0.00,CLR,,0.00,673.0,WeatherDisplay:10.37,2013-10-09 17:23:00,
2013-10-09 13:28:00,68.8,51.0,30.28,SSE,149,5.0,5.0,53,0.00,CLR,,0.00,668.0,WeatherDisplay:10.37,2013-10-09 17:28:00,
2013-10-09 13:33:00,68.9,52.6,30.28,SW,227,4.0,4.0,56,0.00,CLR,,0.00,675.0,WeatherDisplay:10.37,2013-10-09 17:33:00,
2013-10-09 13:38:00,68.9,52.6,30.27,East,92,6.9,6.9,56,0.00,CLR,,0.00,677.0,WeatherDisplay:10.37,2013-10-09 17:38:00,
2013-10-09 13:43:00,68.9,50.0,30.27,SSE,155,4.6,4.6,51,0.00,CLR,,0.00,675.0,WeatherDisplay:10.37,2013-10-09 17:43:00,
2013-10-09 13:48:00,69.1,49.7,30.27,SSW,205,6.0,6.0,50,0.00,CLR,,0.00,677.0,WeatherDisplay:10.37,2013-10-09 17:48:00,
2013-10-09 13:53:00,69.2,50.8,30.27,South,175,8.1,8.1,52,0.00,CLR,,0.00,671.0,WeatherDisplay:10.37,2013-10-09 17:53:00,
2013-10-09 13:58:00,69.2,50.8,30.27,WSW,246,7.0,7.0,52,0.00,CLR,,0.00,666.0,WeatherDisplay:10.37,2013-10-09 17:58:00,
2013-10-09 14:03:00,69.2,51.3,30.26,SW,227,5.8,5.8,53,0.00,CLR,,0.00,664.0,WeatherDisplay:10.37,2013-10-09 18:03:00,
2013-10-09 14:08:00,69.2,51.8,30.26,WSW,238,6.0,6.0,54,0.00,CLR,,0.00,666.0,WeatherDisplay:10.37,2013-10-09 18:08:00,
2013-10-09 14:13:00,69.3,52.4,30.26,ESE,115,4.6,4.6,55,0.00,CLR,,0.00,659.0,WeatherDisplay:10.37,2013-10-09 18:13:00,
2013-10-09 14:18:00,69.5,51.1,30.26,SE,129,6.9,6.9,52,0.00,CLR,,0.00,654.0,WeatherDisplay:10.37,2013-10-09 18:18:00,
2013-10-09 14:23:00,69.6,52.7,30.26,South,169,4.6,4.6,55,0.00,CLR,,0.00,652.0,WeatherDisplay:10.37,2013-10-09 18:23:00,
2013-10-09 14:28:00,69.7,50.8,30.26,South,170,6.9,6.9,51,0.00,CLR,,0.00,652.0,WeatherDisplay:10.37,2013-10-09 18:28:00,
2013-10-09 14:33:00,69.9,49.9,30.26,SSW,200,8.1,8.1,49,0.00,CLR,,0.00,650.0,WeatherDisplay:10.37,2013-10-09 18:33:00,
2013-10-09 14:38:00,70.3,51.3,30.25,SSW,210,9.0,9.0,51,0.00,CLR,,0.00,643.0,WeatherDisplay:10.37,2013-10-09 18:38:00,
2013-10-09 14:43:00,70.2,50.1,30.25,SSW,203,6.9,6.9,49,0.00,CLR,,0.00,638.0,WeatherDisplay:10.37,2013-10-09 18:43:00,
2013-10-09 14:48:00,70.1,50.6,30.25,South,170,10.4,10.4,50,0.00,CLR,,0.00,633.0,WeatherDisplay:10.37,2013-10-09 18:48:00,
2013-10-09 14:53:00,70.0,51.0,30.25,SE,130,8.1,8.1,51,0.00,CLR,,0.00,626.0,WeatherDisplay:10.37,2013-10-09 18:53:00,
2013-10-09 14:58:00,70.0,51.0,30.25,South,174,12.7,12.7,51,0.00,CLR,,0.00,617.0,WeatherDisplay:10.37,2013-10-09 18:58:00,
2013-10-09 15:03:00,69.8,50.3,30.25,South,173,6.9,6.9,50,0.00,CLR,,0.00,613.0,WeatherDisplay:10.37,2013-10-09 19:03:00,
2013-10-09 15:08:00,69.9,50.4,30.25,SSE,155,2.3,2.3,50,0.00,CLR,,0.00,603.0,WeatherDisplay:10.37,2013-10-09 19:08:00,
2013-10-09 15:13:00,70.1,51.1,30.24,ESE,103,5.8,5.8,51,0.00,CLR,,0.00,596.0,WeatherDisplay:10.37,2013-10-09 19:13:00,
2013-10-09 15:18:00,70.3,51.8,30.25,SSW,204,11.5,11.5,52,0.00,CLR,,0.00,585.0,WeatherDisplay:10.37,2013-10-09 19:18:00,
2013-10-09 15:23:00,70.2,51.7,30.24,South,169,3.5,3.5,52,0.00,CLR,,0.00,573.0,WeatherDisplay:10.37,2013-10-09 19:23:00,
2013-10-09 15:28:00,70.3,51.8,30.24,SSE,162,2.3,2.3,52,0.00,CLR,,0.00,568.0,WeatherDisplay:10.37,2013-10-09 19:28:00,
2013-10-09 15:33:00,70.4,53.0,30.24,SSE,151,4.6,4.6,54,0.00,CLR,,0.00,555.0,WeatherDisplay:10.37,2013-10-09 19:33:00,
2013-10-09 15:38:00,70.6,55.6,30.24,South,182,5.0,5.0,59,0.00,CLR,,0.00,555.0,WeatherDisplay:10.37,2013-10-09 19:38:00,
2013-10-09 15:43:00,70.7,53.2,30.24,SSE,147,4.0,4.0,54,0.00,CLR,,0.00,554.0,WeatherDisplay:10.37,2013-10-09 19:43:00,
2013-10-09 15:48:00,70.7,52.7,30.24,South,170,6.0,6.0,53,0.00,CLR,,0.00,543.0,WeatherDisplay:10.37,2013-10-09 19:48:00,
2013-10-09 15:53:00,70.7,51.1,30.23,South,187,11.5,11.5,50,0.00,CLR,,0.00,536.0,WeatherDisplay:10.37,2013-10-09 19:53:00,
2013-10-09 15:58:00,70.6,49.4,30.23,SSE,150,10.4,10.4,47,0.00,CLR,,0.00,524.0,WeatherDisplay:10.37,2013-10-09 19:58:00,
2013-10-09 16:03:00,70.6,50.5,30.23,SSW,200,6.9,6.9,49,0.00,CLR,,0.00,510.0,WeatherDisplay:10.37,2013-10-09 20:03:00,
2013-10-09 16:08:00,70.8,49.6,30.23,South,187,5.8,5.8,47,0.00,CLR,,0.00,497.0,WeatherDisplay:10.37,2013-10-09 20:08:00,
2013-10-09 16:13:00,70.9,51.3,30.23,ESE,123,4.6,4.6,50,0.00,CLR,,0.00,485.0,WeatherDisplay:10.37,2013-10-09 20:13:00,
2013-10-09 16:18:00,70.8,49.6,30.23,South,183,5.0,5.0,47,0.00,CLR,,0.00,476.0,WeatherDisplay:10.37,2013-10-09 20:18:00,
2013-10-09 16:23:00,70.7,48.9,30.23,South,171,10.0,10.0,46,0.00,CLR,,0.00,464.0,WeatherDisplay:10.37,2013-10-09 20:23:00,
2013-10-09 16:28:00,70.5,49.9,30.23,South,180,11.5,11.5,48,0.00,FEW,,0.00,452.0,WeatherDisplay:10.37,2013-10-09 20:28:00,
2013-10-09 16:33:00,70.6,50.0,30.23,South,171,5.8,5.8,48,0.00,FEW,,0.00,441.0,WeatherDisplay:10.37,2013-10-09 20:33:00,
2013-10-09 16:39:00,70.7,49.5,30.22,SW,223,5.8,5.8,47,0.00,FEW,,0.00,427.0,WeatherDisplay:10.37,2013-10-09 20:39:00,
2013-10-09 16:44:00,71.0,50.9,30.22,SE,140,3.5,3.5,49,0.00,SCT,,0.00,417.0,WeatherDisplay:10.37,2013-10-09 20:44:00,
2013-10-09 16:49:00,71.0,50.3,30.22,ESE,117,9.2,9.2,48,0.00,SCT,,0.00,403.0,WeatherDisplay:10.37,2013-10-09 20:49:00,
2013-10-09 16:54:00,70.8,49.0,30.22,South,182,6.9,6.9,46,0.00,SCT,,0.00,392.0,WeatherDisplay:10.37,2013-10-09 20:54:00,
2013-10-09 16:59:00,70.8,50.7,30.22,SSE,160,2.0,2.0,49,0.00,SCT,,0.00,376.0,WeatherDisplay:10.37,2013-10-09 20:59:00,
2013-10-09 17:04:00,70.8,48.4,30.22,SE,134,3.5,3.5,45,0.00,SCT,,0.00,360.0,WeatherDisplay:10.37,2013-10-09 21:04:00,
2013-10-09 17:09:00,70.5,49.3,30.22,ESE,116,6.9,6.9,47,0.00,SCT,,0.00,346.0,WeatherDisplay:10.37,2013-10-09 21:09:00,
2013-10-09 17:14:00,70.3,49.7,30.21,SSE,149,3.0,3.0,48,0.00,SCT,,0.00,330.0,WeatherDisplay:10.37,2013-10-09 21:14:00,
2013-10-09 17:19:00,70.3,49.7,30.21,SSE,152,3.5,3.5,48,0.00,BKN,,0.00,315.0,WeatherDisplay:10.37,2013-10-09 21:19:00,
2013-10-09 17:24:00,70.3,49.1,30.21,ESE,109,4.6,4.6,47,0.00,BKN,,0.00,301.0,WeatherDisplay:10.37,2013-10-09 21:24:00,
2013-10-09 17:29:00,70.0,50.0,30.21,East,100,2.3,2.3,49,0.00,BKN,,0.00,285.0,WeatherDisplay:10.37,2013-10-09 21:29:00,
2013-10-09 17:34:00,69.9,50.4,30.21,SE,129,1.2,1.2,50,0.00,BKN,,0.00,272.0,WeatherDisplay:10.37,2013-10-09 21:34:00,
2013-10-09 17:39:00,69.8,49.2,30.21,ESE,119,4.6,4.6,48,0.00,BKN,,0.00,257.0,WeatherDisplay:10.37,2013-10-09 21:39:00,
2013-10-09 17:44:00,69.7,49.7,30.21,ESE,118,2.3,2.3,49,0.00,BKN,,0.00,239.0,WeatherDisplay:10.37,2013-10-09 21:44:00,
2013-10-09 17:49:00,69.5,49.5,30.21,SSE,160,6.9,6.9,49,0.00,BKN,,0.00,223.0,WeatherDisplay:10.37,2013-10-09 21:49:00,
2013-10-09 17:54:00,69.4,50.5,30.21,SSE,162,3.5,3.5,51,0.00,BKN,,0.00,202.0,WeatherDisplay:10.37,2013-10-09 21:54:00,
2013-10-09 17:59:00,69.3,49.3,30.21,South,181,4.0,4.0,49,0.00,BKN,,0.00,183.0,WeatherDisplay:10.37,2013-10-09 21:59:00,
2013-10-09 18:04:00,69.2,49.8,30.21,ESE,121,2.3,0.0,50,0.00,BKN,,0.00,162.0,WeatherDisplay:10.37,2013-10-09 22:04:00,
2013-10-09 18:09:00,69.0,49.6,30.21,South,170,3.5,3.5,50,0.00,BKN,,0.00,146.0,WeatherDisplay:10.37,2013-10-09 22:09:00,
2013-10-09 18:14:00,68.7,49.8,30.21,South,170,3.5,3.5,51,0.00,BKN,,0.00,111.0,WeatherDisplay:10.37,2013-10-09 22:14:00,
2013-10-09 18:19:00,68.2,50.4,30.21,SSE,164,2.3,2.3,53,0.00,BKN,,0.00,62.0,WeatherDisplay:10.37,2013-10-09 22:19:00,
2013-10-09 18:24:00,67.9,50.1,30.21,SSE,164,2.3,0.0,53,0.00,BKN,,0.00,88.0,WeatherDisplay:10.37,2013-10-09 22:24:00,
2013-10-09 18:29:00,67.6,50.4,30.21,East,100,3.5,3.5,54,0.00,BKN,,0.00,74.0,WeatherDisplay:10.37,2013-10-09 22:29:00,
2013-10-09 18:34:00,67.1,50.4,30.21,ESE,121,5.8,5.8,55,0.00,BKN,,0.00,58.0,WeatherDisplay:10.37,2013-10-09 22:34:00,
2013-10-09 18:39:00,66.6,50.9,30.21,East,101,5.0,5.0,57,0.00,CLR,,0.00,32.0,WeatherDisplay:10.37,2013-10-09 22:39:00,
2013-10-09 18:44:00,66.0,50.8,30.21,SE,132,3.5,3.5,58,0.00,CLR,,0.00,18.0,WeatherDisplay:10.37,2013-10-09 22:44:00,
2013-10-09 18:49:00,65.4,50.7,30.21,SE,130,4.6,4.6,59,0.00,CLR,,0.00,11.0,WeatherDisplay:10.37,2013-10-09 22:49:00,
2013-10-09 18:54:00,64.8,50.6,30.21,ESE,115,2.0,2.0,60,0.00,CLR,,0.00,9.0,WeatherDisplay:10.37,2013-10-09 22:54:00,
2013-10-09 18:59:00,64.2,50.5,30.21,ESE,104,2.3,2.3,61,0.00,CLR,,0.00,5.0,WeatherDisplay:10.37,2013-10-09 22:59:00,
2013-10-09 19:04:00,63.6,50.3,30.21,SE,126,3.5,3.5,62,0.00,CLR,,0.00,0.0,WeatherDisplay:10.37,2013-10-09 23:04:00,
2013-10-09 19:09:00,63.1,50.3,30.21,ESE,123,4.6,4.6,63,0.00,CLR,,0.00,0.0,WeatherDisplay:10.37,2013-10-09 23:09:00,
2013-10-09 19:14:00,62.8,50.0,30.21,ESE,118,3.5,3.5,63,0.00,CLR,,0.00,0.0,WeatherDisplay:10.37,2013-10-09 23:14:00,
2013-10-09 19:19:00,62.8,50.0,30.21,ESE,118,1.2,2.3,63,0.00,CLR,,0.00,0.0,WeatherDisplay:10.37,2013-10-09 23:19:00,
2013-10-09 19:24:00,62.8,50.0,30.21,ESE,118,1.2,2.3,63,0.00,CLR,,0.00,0.0,WeatherDisplay:10.37,2013-10-09 23:24:00,
2013-10-09 19:29:00,62.8,50.0,30.21,ESE,118,1.2,2.3,63,0.00,CLR,,0.00,0.0,WeatherDisplay:10.37,2013-10-09 23:29:00,
2013-10-09 19:34:00,62.8,50.0,30.21,ESE,118,1.2,2.3,63,0.00,CLR,,0.00,0.0,WeatherDisplay:10.37,2013-10-09 23:34:00,
2013-10-09 19:39:00,62.8,50.0,30.21,ESE,118,1.2,2.3,63,0.00,CLR,,0.00,0.0,WeatherDisplay:10.37,2013-10-09 23:39:00,
2013-10-09 19:44:00,62.8,50.0,30.21,ESE,118,1.2,2.3,63,0.00,CLR,,0.00,0.0,WeatherDisplay:10.37,2013-10-09 23:44:00,
2013-10-09 19:49:00,62.8,50.0,30.21,ESE,118,1.2,2.3,63,0.00,CLR,,0.00,0.0,WeatherDisplay:10.37,2013-10-09 23:49:00,
2013-10-09 19:54:00,62.8,50.0,30.21,ESE,118,1.2,2.3,63,0.00,CLR,,0.00,0.0,WeatherDisplay:10.37,2013-10-09 23:54:00,
2013-10-09 19:59:00,62.8,50.0,30.21,ESE,118,1.2,2.3,63,0.00,CLR,,0.00,0.0,WeatherDisplay:10.37,2013-10-09 23:59:00,
2013-10-09 20:04:00,62.8,50.0,30.21,ESE,118,1.2,2.3,63,0.00,CLR,,0.00,0.0,WeatherDisplay:10.37,2013-10-10 00:04:00,
2013-10-09 20:09:00,62.8,50.0,30.21,ESE,118,1.2,2.3,63,0.00,CLR,,0.00,0.0,WeatherDisplay:10.37,2013-10-10 00:09:00,
2013-10-09 20:14:00,62.8,50.0,30.21,ESE,118,1.2,2.3,63,0.00,CLR,,0.00,0.0,WeatherDisplay:10.37,2013-10-10 00:14:00,
2013-10-09 20:19:00,62.8,50.0,30.21,ESE,118,1.2,2.3,63,0.00,CLR,,0.00,0.0,WeatherDisplay:10.37,2013-10-10 00:19:00,
2013-10-09 20:24:00,62.8,50.0,30.21,ESE,118,1.2,2.3,63,0.00,CLR,,0.00,0.0,WeatherDisplay:10.37,2013-10-10 00:24:00,
2013-10-09 20:29:00,62.8,50.0,30.21,ESE,118,1.2,2.3,63,0.00,CLR,,0.00,0.0,WeatherDisplay:10.37,2013-10-10 00:29:00,
2013-10-09 20:34:00,62.8,50.0,30.21,ESE,118,1.2,2.3,63,0.00,CLR,,0.00,0.0,WeatherDisplay:10.37,2013-10-10 00:34:00,
2013-10-09 20:39:00,62.8,50.0,30.21,ESE,118,1.2,2.3,63,0.00,CLR,,0.00,0.0,WeatherDisplay:10.37,2013-10-10 00:39:00,
2013-10-09 20:44:00,62.8,50.0,30.21,ESE,118,1.2,2.3,63,0.00,CLR,,0.00,0.0,WeatherDisplay:10.37,2013-10-10 00:44:00,
2013-10-09 20:49:00,62.8,50.0,30.21,ESE,118,1.2,2.3,63,0.00,CLR,,0.00,0.0,WeatherDisplay:10.37,2013-10-10 00:49:00,
2013-10-09 20:54:00,62.8,50.0,30.21,ESE,118,1.2,2.3,63,0.00,CLR,,0.00,0.0,WeatherDisplay:10.37,2013-10-10 00:54:00,
2013-10-09 20:59:00,62.8,50.0,30.21,ESE,118,1.2,2.3,63,0.00,CLR,,0.00,0.0,WeatherDisplay:10.37,2013-10-10 00:59:00,
2013-10-09 21:04:00,62.8,50.0,30.21,ESE,118,1.2,2.3,63,0.00,CLR,,0.00,0.0,WeatherDisplay:10.37,2013-10-10 01:04:00,
2013-10-09 21:10:00,62.8,50.0,30.21,ESE,118,1.2,2.3,63,0.00,CLR,,0.00,0.0,WeatherDisplay:10.37,2013-10-10 01:10:00,
2013-10-09 21:15:00,62.8,50.0,30.21,ESE,118,1.2,2.3,63,0.00,CLR,,0.00,0.0,WeatherDisplay:10.37,2013-10-10 01:15:00,
2013-10-09 21:20:00,62.8,50.0,30.21,ESE,118,1.2,2.3,63,0.00,CLR,,0.00,0.0,WeatherDisplay:10.37,2013-10-10 01:20:00,
2013-10-09 21:25:00,62.8,50.0,30.21,ESE,118,1.2,2.3,63,0.00,CLR,,0.00,0.0,WeatherDisplay:10.37,2013-10-10 01:25:00,
2013-10-09 21:30:00,62.8,50.0,30.21,ESE,118,1.2,2.3,63,0.00,CLR,,0.00,0.0,WeatherDisplay:10.37,2013-10-10 01:30:00,
2013-10-09 21:35:00,62.8,50.0,30.21,ESE,118,1.2,2.3,63,0.00,CLR,,0.00,0.0,WeatherDisplay:10.37,2013-10-10 01:35:00,
2013-10-09 21:40:00,62.8,50.0,30.21,ESE,118,1.2,2.3,63,0.00,CLR,,0.00,0.0,WeatherDisplay:10.37,2013-10-10 01:40:00,
2013-10-09 21:45:00,62.8,50.0,30.21,ESE,118,1.2,2.3,63,0.00,CLR,,0.00,0.0,WeatherDisplay:10.37,2013-10-10 01:45:00,
2013-10-09 21:50:00,62.8,50.0,30.21,ESE,118,1.2,2.3,63,0.00,CLR,,0.00,0.0,WeatherDisplay:10.37,2013-10-10 01:50:00,
2013-10-09 21:55:00,62.8,50.0,30.21,ESE,118,1.2,2.3,63,0.00,CLR,,0.00,0.0,WeatherDisplay:10.37,2013-10-10 01:55:00,
2013-10-09 22:00:00,62.8,50.0,30.21,ESE,118,1.2,2.3,63,0.00,CLR,,0.00,0.0,WeatherDisplay:10.37,2013-10-10 02:00:00,
2013-10-09 22:05:00,62.8,50.0,30.21,ESE,118,1.2,2.3,63,0.00,CLR,,0.00,0.0,WeatherDisplay:10.37,2013-10-10 02:05:00,
2013-10-09 22:10:00,62.8,50.0,30.21,ESE,118,1.2,2.3,63,0.00,CLR,,0.00,0.0,WeatherDisplay:10.37,2013-10-10 02:10:00,
2013-10-09 22:15:00,62.8,50.0,30.21,ESE,118,1.2,2.3,63,0.00,CLR,,0.00,0.0,WeatherDisplay:10.37,2013-10-10 02:15:00,
2013-10-09 22:20:00,62.8,50.0,30.21,ESE,118,1.2,2.3,63,0.00,CLR,,0.00,0.0,WeatherDisplay:10.37,2013-10-10 02:20:00,
2013-10-09 22:25:00,62.8,50.0,30.21,ESE,118,1.2,2.3,63,0.00,CLR,,0.00,0.0,WeatherDisplay:10.37,2013-10-10 02:25:00,
2013-10-09 22:30:00,62.8,50.0,30.21,ESE,118,1.2,2.3,63,0.00,CLR,,0.00,0.0,WeatherDisplay:10.37,2013-10-10 02:30:00,
2013-10-09 22:35:00,62.8,50.0,30.21,ESE,118,1.2,2.3,63,0.00,CLR,,0.00,0.0,WeatherDisplay:10.37,2013-10-10 02:35:00,
2013-10-09 22:40:00,62.8,50.0,30.21,ESE,118,1.2,2.3,63,0.00,CLR,,0.00,0.0,WeatherDisplay:10.37,2013-10-10 02:40:00,
2013-10-09 22:45:00,62.8,50.0,30.21,ESE,118,1.2,2.3,63,0.00,CLR,,0.00,0.0,WeatherDisplay:10.37,2013-10-10 02:45:00,
2013-10-09 22:50:00,62.8,50.0,30.21,ESE,118,1.2,2.3,63,0.00,CLR,,0.00,0.0,WeatherDisplay:10.37,2013-10-10 02:50:00,
2013-10-09 22:55:00,62.8,50.0,30.21,ESE,118,1.2,2.3,63,0.00,CLR,,0.00,0.0,WeatherDisplay:10.37,2013-10-10 02:55:00,
2013-10-09 23:00:00,62.8,50.0,30.21,ESE,118,1.2,2.3,63,0.00,CLR,,0.00,0.0,WeatherDisplay:10.37,2013-10-10 03:00:00,
2013-10-09 23:05:00,62.8,50.0,30.21,ESE,118,1.2,2.3,63,0.00,CLR,,0.00,0.0,WeatherDisplay:10.37,2013-10-10 03:05:00,
2013-10-09 23:10:00,62.8,50.0,30.21,ESE,118,1.2,2.3,63,0.00,CLR,,0.00,0.0,WeatherDisplay:10.37,2013-10-10 03:10:00,
2013-10-09 23:15:00,62.8,50.0,30.21,ESE,118,1.2,2.3,63,0.00,CLR,,0.00,0.0,WeatherDisplay:10.37,2013-10-10 03:15:00,
2013-10-09 23:20:00,62.8,50.0,30.21,ESE,118,1.2,2.3,63,0.00,CLR,,0.00,0.0,WeatherDisplay:10.37,2013-10-10 03:20:00,
2013-10-09 23:25:00,62.8,50.0,30.21,ESE,118,1.2,2.3,63,0.00,CLR,,0.00,0.0,WeatherDisplay:10.37,2013-10-10 03:25:00,
2013-10-09 23:30:00,62.8,50.0,30.21,ESE,118,1.2,2.3,63,0.00,CLR,,0.00,0.0,WeatherDisplay:10.37,2013-10-10 03:30:00,
2013-10-09 23:35:00,62.8,50.0,30.21,ESE,118,1.2,2.3,63,0.00,CLR,,0.00,0.0,WeatherDisplay:10.37,2013-10-10 03:35:00,
2013-10-09 23:40:00,62.8,50.0,30.21,ESE,118,1.2,2.3,63,0.00,CLR,,0.00,0.0,WeatherDisplay:10.37,2013-10-10 03:40:00,
2013-10-09 23:45:00,62.8,50.0,30.21,ESE,118,1.2,2.3,63,0.00,CLR,,0.00,0.0,WeatherDisplay:10.37,2013-10-10 03:45:00,
2013-10-09 23:50:00,62.8,50.0,30.21,ESE,118,1.2,2.3,63,0.00,CLR,,0.00,0.0,WeatherDisplay:10.37,2013-10-10 03:50:00,
2013-10-09 23:55:00,62.8,50.0,30.21,ESE,118,1.2,2.3,63,0.00,CLR,,0.00,0.0,WeatherDisplay:10.37,2013-10-10 03:55:00,